This is the latest recevied weather packets stored in our database for station/object N9CQS-13. If no packets are shown the sender has not sent any weather packets the latest 10 day(s).
| Time | Temp. | Humidity | Pressure | Rain* | Wind** | Luminosity | Snow |
|---|---|---|---|---|---|---|---|
| 1777768291 | 11.67° C | 42% | 1018.8 hPa | 0 mm | - | - | - |
| 1777767691 | 12.22° C | 40% | 1018.8 hPa | 0 mm | - | - | - |
| 1777767091 | 12.22° C | 39% | 1018.7 hPa | 0 mm | - | - | - |
| 1777766491 | 12.22° C | 38% | 1018.7 hPa | 0 mm | - | - | - |
| 1777765891 | 12.78° C | 36% | 1018.7 hPa | 0 mm | - | - | - |
| 1777765291 | 12.78° C | 37% | 1018.7 hPa | 0 mm | - | - | - |
| 1777764692 | 12.78° C | 36% | 1018.7 hPa | 0 mm | - | - | - |
| 1777764092 | 12.78° C | 37% | 1018.8 hPa | 0 mm | - | - | - |
| 1777763491 | 12.78° C | 37% | 1018.8 hPa | 0 mm | - | - | - |
| 1777762891 | 13.33° C | 36% | 1018.8 hPa | 0 mm | - | - | - |
| 1777762292 | 13.33° C | 36% | 1018.8 hPa | 0 mm | - | - | - |
| 1777761691 | 13.89° C | 35% | 1018.7 hPa | 0 mm | - | - | - |
| 1777761091 | 13.89° C | 34% | 1018.7 hPa | 0 mm | - | - | - |
| 1777760492 | 13.33° C | 35% | 1018.9 hPa | 0 mm | - | - | - |
| 1777759891 | 13.33° C | 34% | 1018.9 hPa | 0 mm | - | - | - |
| 1777759291 | 13.33° C | 36% | 1018.9 hPa | 0 mm | - | - | - |
| 1777758691 | 13.33° C | 36% | 1018.9 hPa | 0 mm | - | - | - |
| 1777758091 | 13.33° C | 35% | 1018.9 hPa | 0 mm | - | - | - |
| 1777756891 | 12.78° C | 36% | 1019.1 hPa | 0 mm | - | - | - |
| 1777756292 | 12.78° C | 37% | 1019.1 hPa | 0 mm | - | - | - |
| 1777755691 | 13.33° C | 35% | 1019.1 hPa | 0 mm | - | - | - |
| 1777755091 | 13.33° C | 35% | 1019.2 hPa | 0 mm | - | - | - |
| 1777754491 | 12.78° C | 37% | 1019.2 hPa | 0 mm | - | - | - |
| 1777753891 | 13.33° C | 36% | 1019.3 hPa | 0 mm | - | - | - |
| 1777753291 | 13.33° C | 34% | 1019.4 hPa | 0 mm | - | - | - |
* Rain latest hour (hover to see other rain measurements)
** Current wind speed in m/s (hover to see current wind gust speed)